Tracking 19706 objects as of 16-Jun-2019
HD Live streaming from Space Station
objects crossing your sky now

CZ-4 DEB

Track CZ-4 DEB now!
10-day predictions


NORAD ID: 26129
Int'l Code: 1999-057R
Perigee: 723.0 km
Apogee: 1,391.7 km
Inclination: 99.1 °
Period: 106.2 minutes
Semi major axis: 7428 km
RCS: 0.1296 m2 (medium)
Launch date: October 14, 1999
Source: People's Republic of China (PRC)
Launch site: Taiyaun Space Center, China (TSC)

Note: This is SATELLITE DEBRIS
aabbcc
Your satellite tracking list
Your tracking list is empty




NASA's NSSDC Master Catalog

Two Line Element Set (TLE):
1 26129U 99057R   19166.10615742  .00000131  00000-0  12939-3 0  9991
2 26129  99.0576 136.8452 0450089 264.2812  90.6860 13.56025154950878
Source of the keplerian elements: AFSPC